This is the latest recevied weather packets stored in our database for station/object KC5DAQ-28. If no packets are shown the sender has not sent any weather packets the latest 10 day(s).
| Time | Temp. | Humidity | Pressure | Rain* | Wind** | Luminosity | Snow |
|---|---|---|---|---|---|---|---|
| 1777936024 | 25.56° C | 68% | 1004.7 hPa | 0 mm | - | 160 W/m² | - |
| 1777935963 | 25.56° C | 68% | 1004.8 hPa | 0 mm | - | 160 W/m² | - |
| 1777935904 | 25.56° C | 68% | 1004.9 hPa | 0 mm | - | 165 W/m² | - |
| 1777935842 | 25.56° C | 68% | 1004.8 hPa | 0 mm | - | 165 W/m² | - |
| 1777935784 | 26.11° C | 68% | 1004.9 hPa | 0 mm | - | 158 W/m² | - |
| 1777935723 | 25.56° C | 68% | 1004.8 hPa | 0 mm | - | 158 W/m² | - |
| 1777935664 | 25.56° C | 68% | 1004.8 hPa | 0 mm | - | 162 W/m² | - |
| 1777935604 | 26.11° C | 68% | 1004.8 hPa | 0 mm | - | 162 W/m² | - |
| 1777935542 | 26.11° C | 68% | 1004.7 hPa | 0 mm | - | 174 W/m² | - |
| 1777935483 | 26.11° C | 68% | 1004.9 hPa | 0 mm | - | 179 W/m² | - |
| 1777935422 | 26.11° C | 68% | 1004.8 hPa | 0 mm | - | 190 W/m² | - |
| 1777935364 | 26.11° C | 68% | 1004.7 hPa | 0 mm | - | 202 W/m² | - |
| 1777935302 | 26.11° C | 68% | 1004.8 hPa | 0 mm | - | 202 W/m² | - |
| 1777935242 | 26.11° C | 68% | 1004.8 hPa | 0 mm | - | 204 W/m² | - |
| 1777935182 | 26.11° C | 68% | 1004.9 hPa | 0 mm | - | 204 W/m² | - |
| 1777935124 | 26.11° C | 68% | 1004.8 hPa | 0 mm | - | 208 W/m² | - |
| 1777935063 | 26.11° C | 68% | 1004.8 hPa | 0 mm | - | 211 W/m² | - |
| 1777935004 | 26.11° C | 67% | 1004.8 hPa | 0 mm | - | 225 W/m² | - |
| 1777934943 | 26.11° C | 67% | 1004.8 hPa | 0 mm | - | 225 W/m² | - |
| 1777934883 | 26.11° C | 67% | 1004.9 hPa | 0 mm | - | 225 W/m² | - |
| 1777934824 | 26.11° C | 67% | 1004.9 hPa | 0 mm | - | 232 W/m² | - |
| 1777934762 | 26.11° C | 67% | 1004.8 hPa | 0 mm | - | 211 W/m² | - |
| 1777934704 | 26.11° C | 67% | 1004.9 hPa | 0 mm | - | 209 W/m² | - |
| 1777934644 | 26.11° C | 67% | 1004.9 hPa | 0 mm | - | 229 W/m² | - |
| 1777934583 | 26.11° C | 67% | 1004.9 hPa | 0 mm | - | 195 W/m² | - |
* Rain latest hour (hover to see other rain measurements)
** Current wind speed in m/s (hover to see current wind gust speed)